Sun Valley, CA

5:37 AM PST on February 10, 2016 (GMT -0800)
Burbank-Glendale-Pasadena

Weather History for KBUR - September, 2015

Change the Weather History Date:

Friday, September 4, 2015

  Actual Average Record
Temperature  
Mean Temperature 73 °F 75 °F  
Max Temperature 79 °F 88 °F 110 °F (1984)
Min Temperature 66 °F 62 °F 45 °F (1942)
Degree Days  
Heating Degree Days 0 0  
Month to date heating degree days 0 0  
Since 1 July heating degree days 0 0  
Cooling Degree Days 8 10  
Month to date cooling degree days 38 40  
Year to date cooling degree days 1389 922  
Growing Degree Days 22 (Base 50)    
Moisture  
Dew Point 55 °F    
Average Humidity 58    
Maximum Humidity 73    
Minimum Humidity 43    
Precipitation  
Precipitation 0.00 in 0.00 in 0.24 in (1963)
Month to date precipitation 0.00 0.00  
Year to date precipitation 3.41 12.64  
Sea Level Pressure  
Sea Level Pressure 29.83 in    
Wind  
Wind Speed 6 mph (SSE)    
Max Wind Speed 14 mph    
Max Gust Speed 18 mph    
Visibility 10 miles    
Events      
T = Trace of Precipitation, MM = Missing Value Source: NWS Daily Summary

Daily Weather History Graph

Daily Weather History Graph

Search for Another Location

Airport or City:

Trip Planner

Search our weather history database for the weather conditions in past years. The results will help you decide how hot, cold, wet, or windy it might be!

Date:

Astronomy

Sep. 04, 2015 Rise Set
Actual Time 6:28 AM PDT 7:15 PM PDT
Civil Twilight 6:03 AM PDT 7:40 PM PDT
Nautical Twilight 5:33 AM PDT 8:10 PM PDT
Astronomical Twilight 5:02 AM PDT 8:41 PM PDT
Moon 11:48 PM PDT (9/4) 12:58 PM PDT (9/4)
Length of Visible Light 13h 37m
Length of Day
12h 46m
Waning Gibbous, 57% of the Moon is Illuminated
Sep 4
Waning Gibbous
Sep 5
Last Quarter
Sep 12
New
Sep 21
First Quarter
Sep 27
Full

Hourly Weather History & Observations

Time (PDT) Temp. Dew Point Humidity Pressure Visibility Wind Dir Wind Speed Gust Speed Precip Events Conditions
12:53 AM 66.9 °F 55.9 °F 68% 29.83 in 10.0 mi SW 5.8 mph - N/A   Overcast
1:53 AM 66.0 °F 55.9 °F 70% 29.83 in 10.0 mi SSW 3.5 mph - N/A   Overcast
2:53 AM 66.0 °F 55.9 °F 70% 29.83 in 10.0 mi Calm Calm - N/A   Overcast
3:53 AM 66.9 °F 57.0 °F 70% 29.82 in 10.0 mi ESE 5.8 mph - N/A   Overcast
4:53 AM 66.9 °F 57.0 °F 70% 29.82 in 10.0 mi SE 8.1 mph - N/A   Overcast
5:05 AM 66.2 °F 55.4 °F 68% 29.85 in 10.0 mi SE 9.2 mph - N/A   Overcast
5:53 AM 66.9 °F 55.9 °F 68% 29.83 in 10.0 mi SE 10.4 mph - N/A   Overcast
6:53 AM 66.9 °F 55.9 °F 68% 29.85 in 10.0 mi SSE 6.9 mph - N/A   Overcast
7:53 AM 66.9 °F 55.0 °F 66% 29.86 in 10.0 mi ESE 6.9 mph - N/A   Overcast
8:53 AM 68.0 °F 55.0 °F 63% 29.87 in 10.0 mi SE 5.8 mph - N/A   Overcast
9:53 AM 69.1 °F 54.0 °F 58% 29.87 in 10.0 mi South 3.5 mph - N/A   Overcast
10:53 AM 71.1 °F 53.1 °F 53% 29.88 in 10.0 mi South 6.9 mph - N/A   Overcast
11:53 AM 73.0 °F 53.1 °F 49% 29.86 in 10.0 mi East 8.1 mph - N/A   Overcast
12:53 PM 75.9 °F 52.0 °F 43% 29.84 in 10.0 mi ESE 10.4 mph 16.1 mph N/A   Clear
1:53 PM 79.0 °F 55.9 °F 45% 29.82 in 10.0 mi SSW 5.8 mph 18.4 mph N/A   Clear
2:53 PM 77.0 °F 55.0 °F 47% 29.80 in 10.0 mi WSW 10.4 mph 16.1 mph N/A   Clear
3:53 PM 77.0 °F 55.0 °F 47% 29.79 in 10.0 mi South 9.2 mph 17.3 mph N/A   Clear
4:53 PM 75.9 °F 55.0 °F 48% 29.79 in 10.0 mi South 4.6 mph - N/A   Clear
5:53 PM 75.0 °F 55.0 °F 50% 29.79 in 10.0 mi South 9.2 mph - N/A   Clear
6:53 PM 73.9 °F 54.0 °F 50% 29.80 in 10.0 mi South 6.9 mph - N/A   Clear
7:53 PM 71.1 °F 54.0 °F 55% 29.81 in 10.0 mi SSW 5.8 mph - N/A   Clear
8:53 PM 70.0 °F 53.1 °F 55% 29.82 in 10.0 mi Calm Calm - N/A   Clear
9:53 PM 70.0 °F 54.0 °F 57% 29.83 in 10.0 mi South 3.5 mph - N/A   Clear
10:53 PM 69.1 °F 54.0 °F 58% 29.84 in 10.0 mi Calm Calm - N/A   Clear
11:53 PM 68.0 °F 55.0 °F 63% 29.85 in 10.0 mi Calm Calm - N/A   Clear